Location: Kapuskasing
(49.3803°N, 82.4001°W)
Time: 13:49:09
(UTC-05:00)

RS-44 - Pass Details

Date: 15 December 2025
Orbit: 1174 x 1511 km, 82.5° (Epoch: 21 January)

Event Time Altitude Azimuth Distance (km) Brightness Sun altitude
Exits shadow 02:09:07 14° 13° (NNE) 3,313 ? -56.8°
Drops below altitude 10° 02:10:01 10° 12° (NNE) 3,607 ? -56.7°
Sets 02:12:50 0° 12° (NNE) 4,556 ? -56.4°
